"Pseudo-MPEC" for C1HDKA2

Created 2019 Dec 6 14:07:09 UT using Find_Orb

Click here for an explanation of pseudo-MPECs

 
 Astrometry: 
     C1HDKA2  C2019 12 02.27581 04 08 41.92 +35 10 42.3    ~C27b 20.6 GVNEOCPG96
     C1HDKA2  C2019 12 02.28100 04 08 41.38 +35 10 39.3    ~C27b 20.8 GVNEOCPG96
     C1HDKA2  C2019 12 02.28619 04 08 40.96 +35 10 36.0    ~C27b 21.1 GVNEOCPG96
     C1HDKA2  C2019 12 02.29147 04 08 40.49 +35 10 32.5    ~C27b 21.2 GVNEOCPG96
     C1HDKA2  C2019 12 02.38986 04 08 31.55 +35 09 29.8    ~C29q 20.8 GVNEOCPI52
     C1HDKA2  C2019 12 02.39250 04 08 31.33 +35 09 28.5    ~C29q       VNEOCPI52
     C1HDKA2  C2019 12 02.39514 04 08 31.03 +35 09 26.4    ~C29q       VNEOCPI52
     C1HDKA2  C2019 12 05.12226 04 04 40.22 +34 40 23.3    ~C53q 21.3 VVNEOCP033
     C1HDKA2  C2019 12 05.12946 04 04 39.64 +34 40 18.6    ~C53q 21.3 VVNEOCP033
     C1HDKA2  C2019 12 05.13303 04 04 39.37 +34 40 16.3    ~C53q 22.0 VVNEOCP033
     C1HDKA2 KC2019 12 05:abJgcI5e8d^apAstrometryq=hyVA6g!CDMxIoTc0=3wZ6fF)f0H36
     C1HDKA2 KC2019 12 05AM8jH7!i'redacted;hEJclickfrIiAWSQt@hereN/1;U:[?5cNSH36
     C1HDKA2 KC2019 12 05H?.lGP7K=/t,PR9'4/5y$Dform`d(IdexplanationVVfP?XQoofH36
     C1HDKA2  C2019 12 06.15707 04 03 17.23 +34 29 15.1    ~C657       VNEOCPI52
     C1HDKA2  C2019 12 06.18040 04 03 15.31 +34 28 59.2    ~C657       VNEOCPI52
     C1HDKA2  C2019 12 06.19207 04 03 14.30 +34 28 52.5    ~C657       VNEOCPI52

Station data:
(033) Karl Schwarzschild Observatory, Tautenburg  (N50.980140 E11.711240)
   Germany. 1.3-m Schmidt.
(G96) Mt. Lemmon Survey  (N32.442754 W110.788720)  US/Arizona.  Observers T.
   A. Pruyne, B. M. Africano, E. J. Christensen, G. A. Farneth, D. C. Fuls,
   A. R. Gibbs, A. D. Grauer, H. Gröller, J. A. Johnson, R. A. Kowalski, S.
   M. Larson, G. J. Leonard, D. Rankin, R. L. Seaman, F. C. Shelly. 1.5-m
   reflector + 10K CCD.
(H36) Sandlot Observatory, Scranton  (N38.797693 W95.706400)  US/Kansas.
   Observer G. Hug. 0.56-m reflector + CCD.
(I52) Steward Observatory, Mt. Lemmon Station  (N32.442547 W110.788920)
   US/Arizona.  Observers T. A. Pruyne, B. M. Africano, E. J. Christensen, G.
   A. Farneth, D. C. Fuls, A. R. Gibbs, A. D. Grauer, H. Gröller, J. A.
   Johnson, R. A. Kowalski, S. M. Larson, G. J. Leonard, D. Rankin, R. L.
   Seaman, F. C. Shelly. 1.0-m reflector + CCD.

Orbital elements:  C1HDKA2
   Perihelion 2019 Jun 2.922929 +/- 1.64 TT = 22:09:01 (JD 2458637.422929)
Epoch 2019 Dec  6.0 TT = JDT 2458823.5   Earth MOID: 0.2113   AutoNEOCP
M  51.84180662 +/- 1.6              (J2000 ecliptic)
n   0.27860394 +/- 0.00809          Peri.   26.82285 +/- 0.040
a   2.32172728 +/- 0.0449           Node   293.83903 +/- 0.7
e   0.4778885 +/- 0.017             Incl.   10.27804 +/- 0.20
P   3.54                   H 19.0   G  0.15   U  9.5  
q 1.21220038 +/- 0.0158    Q 3.43125417 +/- 0.104
From 16 observations 2019 Dec. 2-6; mean residual 0".29
Residuals in arcseconds: 
191202 G96  .46+  .09-    191202 I52  .66-  .18-    191205 H36  .12+  .05-    
191202 G96  .38-  .16+    191205 033  .01-  .04+    191206 I52  .16+  .44+    
191202 G96  .25+  .12+    191205 033  .19+  .11+    191206 I52  .21+  .57-    
191202 G96  .37+  .06-    191205 033  .51+  .18+    191206 I52  .35-  .20+    
191202 I52  .10-  .17-    191205 H36  .45-  .07-    
191202 I52  .11+  .22+    191205 H36  .32-  .27-    

Ephemerides (geocentric):
Date (UTC) HH   RA              Dec         delta   r     elong  mag " sig PA
---- -- -- --  -------------   -----------  ------ ------ -----  --- ---- ---
2019 12 06 14  04 02 43.042   +34 24 37.02  1.1423 2.1075 164.2 21.4 .369 169
2019 12 06 15  04 02 39.757   +34 24 09.78  1.1427 2.1078 164.2 21.4 .391 169
2019 12 06 16  04 02 36.475   +34 23 42.53  1.1430 2.1080 164.1 21.4 .413 169
2019 12 06 17  04 02 33.197   +34 23 15.28  1.1433 2.1083 164.1 21.4 .436 169
2019 12 06 18  04 02 29.922   +34 22 48.02  1.1436 2.1085 164.1 21.5 .458 169
2019 12 06 19  04 02 26.651   +34 22 20.75  1.1439 2.1087 164.1 21.5 .481 169
2019 12 06 20  04 02 23.384   +34 21 53.47  1.1442 2.1090 164.0 21.5 .505 169
2019 12 06 21  04 02 20.121   +34 21 26.19  1.1446 2.1092 164.0 21.5 .529 169
2019 12 06 22  04 02 16.862   +34 20 58.91  1.1449 2.1095 164.0 21.5 .553 169
2019 12 06 23  04 02 13.606   +34 20 31.61  1.1452 2.1097 164.0 21.5 .577 169
2019 12 07 00  04 02 10.355   +34 20 04.31  1.1455 2.1100 163.9 21.5 .602 169
2019 12 07 01  04 02 07.107   +34 19 37.00  1.1458 2.1102 163.9 21.5 .627 169
2019 12 07 02  04 02 03.862   +34 19 09.69  1.1461 2.1104 163.9 21.5 .652 169
2019 12 07 03  04 02 00.622   +34 18 42.37  1.1465 2.1107 163.9 21.5 .678 169
2019 12 07 04  04 01 57.385   +34 18 15.04  1.1468 2.1109 163.8 21.5 .704 169
2019 12 07 05  04 01 54.153   +34 17 47.71  1.1471 2.1112 163.8 21.5 .731 169
2019 12 07 06  04 01 50.924   +34 17 20.37  1.1474 2.1114 163.8 21.5 .758 169
2019 12 07 07  04 01 47.698   +34 16 53.02  1.1477 2.1117 163.7 21.5 .785 169
2019 12 07 08  04 01 44.477   +34 16 25.67  1.1481 2.1119 163.7 21.5 .812 168
2019 12 07 09  04 01 41.260   +34 15 58.32  1.1484 2.1121 163.7 21.5 .840 168
2019 12 07 10  04 01 38.046   +34 15 30.95  1.1487 2.1124 163.7 21.5 .868 168
2019 12 07 11  04 01 34.836   +34 15 03.58  1.1490 2.1126 163.6 21.5 .896 168
2019 12 07 12  04 01 31.630   +34 14 36.21  1.1494 2.1129 163.6 21.5 .925 168
2019 12 07 13  04 01 28.428   +34 14 08.83  1.1497 2.1131 163.6 21.5 .954 168
2019 12 07 14  04 01 25.230   +34 13 41.44  1.1500 2.1133 163.6 21.5 .984 168
2019 12 07 15  04 01 22.036   +34 13 14.05  1.1503 2.1136 163.5 21.5 1.01 168
2019 12 07 16  04 01 18.845   +34 12 46.65  1.1507 2.1138 163.5 21.5 1.04 168
2019 12 07 17  04 01 15.658   +34 12 19.25  1.1510 2.1141 163.5 21.5 1.07 168
2019 12 07 18  04 01 12.476   +34 11 51.84  1.1513 2.1143 163.4 21.5 1.10 168
2019 12 07 19  04 01 09.297   +34 11 24.43  1.1516 2.1146 163.4 21.5 1.14 168
2019 12 07 20  04 01 06.122   +34 10 57.01  1.1520 2.1148 163.4 21.5 1.17 167
2019 12 07 21  04 01 02.951   +34 10 29.59  1.1523 2.1150 163.4 21.5 1.20 167
2019 12 07 22  04 00 59.783   +34 10 02.16  1.1526 2.1153 163.3 21.5 1.23 167
2019 12 07 23  04 00 56.620   +34 09 34.73  1.1529 2.1155 163.3 21.5 1.26 167
2019 12 08 00  04 00 53.461   +34 09 07.29  1.1533 2.1158 163.3 21.5 1.30 167
2019 12 08 01  04 00 50.305   +34 08 39.84  1.1536 2.1160 163.2 21.5 1.33 167
2019 12 08 02  04 00 47.154   +34 08 12.39  1.1539 2.1163 163.2 21.5 1.36 167
2019 12 08 03  04 00 44.006   +34 07 44.94  1.1543 2.1165 163.2 21.5 1.40 167
2019 12 08 04  04 00 40.862   +34 07 17.48  1.1546 2.1167 163.2 21.5 1.43 167
2019 12 08 05  04 00 37.722   +34 06 50.02  1.1549 2.1170 163.1 21.5 1.46 167
2019 12 08 06  04 00 34.586   +34 06 22.55  1.1553 2.1172 163.1 21.5 1.50 166
2019 12 08 07  04 00 31.454   +34 05 55.08  1.1556 2.1175 163.1 21.5 1.53 166
2019 12 08 08  04 00 28.326   +34 05 27.60  1.1559 2.1177 163.0 21.5 1.57 166
2019 12 08 09  04 00 25.202   +34 05 00.12  1.1563 2.1180 163.0 21.5 1.60 166
2019 12 08 10  04 00 22.082   +34 04 32.64  1.1566 2.1182 163.0 21.5 1.64 166
2019 12 08 11  04 00 18.966   +34 04 05.15  1.1569 2.1184 162.9 21.5 1.68 166
2019 12 08 12  04 00 15.854   +34 03 37.65  1.1573 2.1187 162.9 21.5 1.71 166
2019 12 08 13  04 00 12.746   +34 03 10.16  1.1576 2.1189 162.9 21.5 1.75 166